Location: Eurasberg
(48.3353°N, 11.0839°E)
Time: 08:34:51
(UTC+00:00)

Meteor 2-10 Rocket - Pass Details

Date: 18 January 2026
Orbit: 733 x 881 km, 81.2° (Epoch: 17 February)

Event Time Altitude Azimuth Distance (km) Brightness Sun altitude
Rises 04:10:18 0° 177° (S) 3,179 6.8 -27.6°
Reaches altitude 10° 04:12:38 10° 173° (S) 2,275 6.0 -27.3°
Maximum altitude 04:17:37 56° 96° (E) 919 4.1 -26.4°
Drops below altitude 10° 04:22:49 10° 19° (NNE) 2,378 6.2 -25.6°
Sets 04:25:18 0° 16° (NNE) 3,337 7.0 -25.2°
